Date String (YYYY-MM-DD hh:mm:ss) UTC,Instrument flags,absolute air pressure of the measurement (hPa),sample flow rate (lpm),inlet stack bypass flow (lpm),air temperature of the measurement (°C),ambient temperature measured by the external sensor (°C),aerosol sample conditioner tube jacket temperature (°C),OPC LED temperature (°C),internal box temperature (°C),relative humidity of the measurement (%),span deviation,mass concentration of particles derived from Lorenz-Mie calculation of OPC scattering (μg/m³),mass concentration of particles derived from Lorenz-Mie calculation of OPC scattering (μg/m³),mass concentration of particles derived from Lorenz-Mie calculation of OPC scattering (μg/m³)
DateTimeUTC,F1_M11,P_M11,Q1_M11,Q2_M11,T1_M11,T2_M11,T3_M11,T4_M11,T5_M11,U1_M11,ZSPAN_M11,X0_M11,X2_M11,X1_M11
2023-09-21 08:00:00,SystemResetWarning,0827.5,5.00,000.00,028.9,027.5,000.0,037.1,030.5,18.0,0000.0,0013.61,0003.89,0002.84
2023-09-21 08:01:00,SystemResetWarning,0827.6,5.00,000.00,028.9,027.5,000.0,037.1,030.6,17.9,0000.0,0013.23,0003.85,0002.83
2023-09-21 08:02:00,SystemResetWarning,0827.6,5.00,000.00,028.9,027.5,000.0,037.1,030.6,18.0,0000.0,0013.06,0003.82,0002.82
2023-09-21 08:03:00,SystemResetWarning,0827.7,5.00,000.00,028.9,027.5,000.0,037.1,030.6,18.1,0000.0,0013.69,0003.81,0002.80
2023-09-21 08:04:00,SystemResetWarning,0827.7,4.99,000.00,028.9,027.2,000.0,037.2,030.5,18.2,0000.0,0013.69,0003.82,0002.77
2023-09-21 08:05:00,SystemResetWarning,0827.7,5.00,000.00,028.8,025.4,000.0,037.1,029.9,18.3,0000.0,0013.38,0003.81,0002.72
2023-09-21 08:06:00,SystemResetWarning,0827.7,5.00,000.00,028.6,024.4,000.0,037.0,029.7,18.4,0000.0,0011.65,0003.75,0002.66
2023-09-21 08:07:00,SystemResetWarning,0827.7,5.01,000.00,028.5,024.4,000.0,037.0,029.6,18.6,0000.0,0010.45,0003.68,0002.61
2023-09-21 08:08:00,SystemResetWarning,0827.7,5.00,000.00,028.4,024.7,000.0,037.0,029.6,18.7,0000.0,0009.80,0003.57,0002.55
2023-09-21 08:09:00,SystemResetWarning,0827.7,4.99,000.00,028.4,025.1,000.0,036.9,029.6,18.7,0000.0,0009.91,0003.48,0002.46
2023-09-21 08:10:00,SystemResetWarning,0827.7,5.00,000.00,028.3,025.4,000.0,036.9,029.7,18.6,0000.0,0009.77,0003.44,0002.39
2023-09-21 08:11:00,SystemResetWarning,0827.7,5.00,000.00,028.3,025.7,000.0,036.9,029.8,18.6,0000.0,0008.34,0003.37,0002.33
2023-09-21 08:12:00,SystemResetWarning,0827.7,5.01,000.00,028.3,026.0,000.0,036.8,029.8,18.4,0000.0,0008.07,0003.31,0002.27
2023-09-21 08:13:00,SystemResetWarning,0827.7,5.01,000.00,028.3,026.2,000.0,036.8,029.8,18.3,0000.0,0008.09,0003.28,0002.22
2023-09-21 08:14:00,SystemResetWarning,0827.7,4.98,000.00,028.3,026.4,000.0,036.8,029.9,18.4,0000.0,0007.51,0003.22,0002.17
2023-09-21 08:15:00,SystemResetWarning,0827.6,4.99,000.00,028.3,026.5,000.0,036.8,029.9,18.6,0000.0,0007.42,0003.16,0002.14
2023-09-21 08:16:00,SystemResetWarning,0827.5,5.01,000.00,028.3,026.7,000.0,036.8,030.0,18.7,0000.0,0007.07,0003.11,0002.15
2023-09-21 08:17:00,SystemResetWarning,0827.5,5.01,000.00,028.4,026.8,000.0,036.8,030.0,18.7,0000.0,0006.99,0003.09,0002.15
2023-09-21 08:18:00,SystemResetWarning,0827.5,5.00,000.00,028.4,026.8,000.0,036.8,030.0,18.6,0000.0,0007.17,0003.04,0002.15
2023-09-21 08:19:00,SystemResetWarning,0827.5,4.99,000.00,028.4,026.9,000.0,036.8,030.1,18.5,0000.0,0007.06,0003.03,0002.15
2023-09-21 08:20:00,SystemResetWarning,0827.5,4.99,000.00,028.4,027.0,000.0,036.8,030.1,18.2,0000.0,0006.27,0002.98,0002.16
2023-09-21 08:21:00,SystemResetWarning,0827.5,5.01,000.00,028.4,027.0,000.0,036.8,030.1,17.9,0000.0,0005.81,0002.97,0002.17
2023-09-21 08:22:00,SystemResetWarning,0827.5,5.00,000.00,028.4,027.1,000.0,036.8,030.2,17.5,0000.0,0005.80,0002.96,0002.18
2023-09-21 08:23:00,SystemResetWarning,0827.6,5.00,000.00,028.5,027.1,000.0,036.8,030.2,17.5,0000.0,0005.85,0002.98,0002.18
2023-09-21 08:24:00,SystemResetWarning,0827.6,5.01,000.00,028.5,027.1,000.0,036.8,030.2,17.7,0000.0,0006.21,0002.96,0002.18
2023-09-21 08:25:00,SystemResetWarning,0827.7,5.00,000.00,028.5,027.2,000.0,036.8,030.2,18.0,0000.0,0006.08,0003.00,0002.19
2023-09-21 08:26:00,SystemResetWarning,0827.7,5.00,000.00,028.5,027.2,000.0,036.8,030.2,18.0,0000.0,0005.96,0002.94,0002.19
2023-09-21 08:27:00,SystemResetWarning,0827.7,5.01,000.00,028.6,027.2,000.0,036.8,030.3,17.9,0000.0,0007.44,0002.87,0002.17
2023-09-21 08:28:00,SystemResetWarning,0827.7,5.00,000.00,028.6,027.2,000.0,036.8,030.3,18.0,0000.0,0007.98,0002.83,0002.16
2023-09-21 08:29:00,SystemResetWarning,0827.7,4.99,000.00,028.6,027.3,000.0,036.8,030.3,17.8,0000.0,0007.87,0002.84,0002.16
2023-09-21 08:30:00,SystemResetWarning,0827.7,4.99,000.00,028.6,027.3,000.0,036.8,030.3,17.8,0000.0,0008.29,0002.87,0002.17
2023-09-21 08:31:00,SystemResetWarning,0827.7,4.99,000.00,028.6,027.3,000.0,036.9,030.3,17.5,0000.0,0008.69,0002.88,0002.16
2023-09-21 08:32:00,SystemResetWarning,0827.7,5.01,000.00,028.6,027.3,000.0,036.9,030.4,17.6,0000.0,0008.88,0002.87,0002.15
2023-09-21 08:33:00,SystemResetWarning,0827.7,5.01,000.00,028.6,027.3,000.0,036.9,030.4,17.6,0000.0,0008.95,0002.89,0002.14
2023-09-21 08:34:00,SystemResetWarning,0827.7,4.99,000.00,028.7,027.4,000.0,036.9,030.4,17.7,0000.0,0009.61,0002.88,0002.12
2023-09-21 08:35:00,SystemResetWarning,0827.7,4.99,000.00,028.7,027.4,000.0,036.9,030.4,17.7,0000.0,0009.90,0002.85,0002.11
2023-09-21 08:36:00,SystemResetWarning,0827.7,5.00,000.00,028.7,027.4,000.0,036.9,030.4,17.8,0000.0,0009.72,0002.80,0002.10
2023-09-21 08:37:00,SystemResetWarning,0827.7,5.01,000.00,028.7,027.4,000.0,036.9,030.5,18.1,0000.0,0009.51,0002.76,0002.07
2023-09-21 08:38:00,SystemResetWarning,0827.7,5.01,000.00,028.7,027.4,000.0,037.0,030.5,18.3,0000.0,0008.47,0002.74,0002.05
2023-09-21 08:39:00,SystemResetWarning,0827.7,5.00,000.00,028.8,027.5,000.0,037.0,030.5,18.4,0000.0,0007.92,0002.73,0002.03
2023-09-21 08:40:00,SystemResetWarning,0827.8,4.99,000.00,028.8,027.5,000.0,037.0,030.5,18.6,0000.0,0008.35,0002.67,0002.01
2023-09-21 08:41:00,SystemResetWarning,0827.7,4.99,000.00,028.8,027.5,000.0,037.0,030.5,18.9,0000.0,0008.23,0002.63,0001.99
2023-09-21 08:42:00,SystemResetWarning,0827.7,5.02,000.00,028.8,027.5,000.0,037.0,030.5,19.0,0000.0,0008.34,0002.63,0001.97
2023-09-21 08:43:00,SystemResetWarning,0827.7,5.00,000.00,028.8,027.5,000.0,037.0,030.6,19.0,0000.0,0008.32,0002.63,0001.97
2023-09-21 08:44:00,SystemResetWarning,0827.7,4.99,000.00,028.8,027.5,000.0,037.1,030.6,19.0,0000.0,0008.55,0002.61,0001.97
2023-09-21 08:45:00,SystemResetWarning,0827.6,5.00,000.00,028.9,027.5,000.0,037.1,030.6,18.9,0000.0,0008.11,0002.59,0001.96
2023-09-21 08:46:00,SystemResetWarning,0827.6,4.99,000.00,028.9,027.6,000.0,037.1,030.6,18.9,0000.0,0007.88,0002.57,0001.94
2023-09-21 08:47:00,SystemResetWarning,0827.6,5.00,000.00,028.9,027.6,000.0,037.1,030.6,18.8,0000.0,0008.07,0002.57,0001.92
2023-09-21 08:48:00,SystemResetWarning,0827.7,5.00,000.00,028.9,027.6,000.0,037.1,030.7,18.8,0000.0,0008.03,0002.55,0001.92
2023-09-21 08:49:00,SystemResetWarning,0827.7,5.01,000.00,028.9,027.6,000.0,037.2,030.6,18.8,0000.0,0008.11,0002.54,0001.92
2023-09-21 08:50:00,SystemResetWarning,0827.7,5.00,000.00,028.9,027.6,000.0,037.2,030.7,18.8,0000.0,0008.17,0002.54,0001.90
2023-09-21 08:51:00,SystemResetWarning,0827.7,4.99,000.00,028.9,027.6,000.0,037.2,030.7,18.8,0000.0,0008.36,0002.59,0001.88
2023-09-21 08:52:00,SystemResetWarning,0827.7,5.00,000.00,029.0,027.6,000.0,037.2,030.7,18.9,0000.0,0008.21,0002.58,0001.87
2023-09-21 08:53:00,SystemResetWarning,0827.7,5.00,000.00,029.0,027.6,000.0,037.2,030.7,18.9,0000.0,0007.89,0002.59,0001.87
2023-09-21 08:54:00,SystemResetWarning,0827.7,5.00,000.00,029.0,027.6,000.0,037.2,030.7,18.9,0000.0,0007.56,0002.55,0001.84
2023-09-21 08:55:00,SystemResetWarning,0827.7,5.00,000.00,029.0,027.7,000.0,037.2,030.7,19.0,0000.0,0007.14,0002.53,0001.82
2023-09-21 08:56:00,SystemResetWarning,0827.7,5.00,000.00,029.0,027.7,000.0,037.3,030.7,19.0,0000.0,0007.52,0002.50,0001.78
2023-09-21 08:57:00,SystemResetWarning,0827.8,5.00,000.00,029.0,027.7,000.0,037.3,030.7,19.1,0000.0,0007.02,0002.45,0001.76
2023-09-21 08:58:00,SystemResetWarning,0827.7,5.01,000.00,029.0,027.7,000.0,037.3,030.7,19.2,0000.0,0006.13,0002.40,0001.75
2023-09-21 08:59:00,SystemResetWarning,0827.8,4.99,000.00,029.0,026.4,000.0,037.3,030.3,19.4,0000.0,0006.04,0002.35,0001.72
